Weather in Novokurovka

Russia / Samara Oblast     52°39′45″N   49°17′02″E
temp.,
°C
wind,
m/s
gust,
m/s
humid.,
%
clouds,
%
prec.,
mm/h
press.,
hPa
HPBL,
m
3 march, wed
wed301:00−1w4797100 0.2 1003236
04:00−5nw339299 0.2 100322
07:00−3wnw3698100 0.4 1003152
10:00−4nw599495 0.4 1004318
13:00−2nw688985 0.1 1005666
16:00−2nw688593 0.1 1006994
19:00−5nw41189100 0.1 1007498
22:00−8wnw499097 0.1 1009175
4 march, thu
thu401:00−11w449259 0.0 100961
04:00−12wsw479340 0.0 101089
07:00−10sw6119410 0.0 1009203
10:00−7sw8149346 0.0 1008477
13:00−2sw91490100 0.1 1005881
16:000wsw111791100 0.5 10031122
19:00+1wsw91691100 0.1 1003971
22:000wsw81491100 0.1 1004781
5 march, fri
fri501:000wsw71491100 0.1 1003617
04:00−2sw6139098 0.1 1003402
07:00−1sw81497100 1.3 1002640
10:00+1sw713100100 2.6 1001615
13:00+1wsw814100100 0.8 1000570
16:00+1wnw610100100 1.1 1003463
19:00−4nnw379389 0.2 1007201
22:00−10n349358 0.2 101141
6 march, sat
sat601:00−12n229336 0.0 101321
04:00−13nne019252 0.0 101521
07:00−11sse2288100 0.0 101421
10:00−8sse2288100 0.0 1013121
13:00−6s0185100 0.0 1011244
16:00−5nw2391100 0.0 1010327
19:00−9wnw339591 0.0 101022
22:00−11nw499076 0.1 1012157
7 march, sun
sun701:00−14nw34940 0.0 101354
04:00−16wnw349417 0.0 101451
07:00−18wnw33930 0.0 101424
10:00−15wsw35910 0.0 1015158
13:00−12sw46890 0.0 1014277
16:00−10ssw59905 0.0 1012394
19:00−8ssw71391100 0.0 1010527
22:00−7ssw81585100 0.1 1007737